Regional Weather Roundup
Issued by NWS

Home | Current Version | Previous Version | Text Only | Print | Product List | Glossary On
Versions: 1 2 3 4 5 6 7 8 9 10 11 12 13 14 15 16 17 18 19 20 21 22 23 24 25 26 27 28 29 30 31 32 33 34 35 36 37 38 39 40 41 42 43 44 45 46 47 48 49 50
000
ASUS44 KOUN 211010
RWROK

WEATHER ROUNDUP FOR OKLAHOMA
NATIONAL WEATHER SERVICE NORMAN OK
400 AM CST SUN DEC 21 2014

NOTE: "FAIR" INDICATES FEW OR NO CLOUDS BELOW 12,000 FEET WITH NO
      SIGNIFICANT WEATHER AND/OR OBSTRUCTIONS TO VISIBILITY.

OKZ001>007-009>012-014-015-017-211100-
NORTHWEST OKLAHOMA AND THE PANHANDLE

CITY           SKY/WX    TMP DP  RH WIND       PRES   REMARKS
GAGE           CLOUDY    41  40  96 S16       29.96F FOG
ENID/WOODRING  PTCLDY    41  37  87 S8        30.04F
$$

OKZ016-021>023-033>039-044-045-211100-
SOUTHWEST OKLAHOMA

CITY           SKY/WX    TMP DP  RH WIND       PRES   REMARKS
LAWTON/REGL    CLOUDY    44  39  82 SE8       30.07F
FREDERICK      CLOUDY    43  40  89 SE9       30.02F
CLINTON        CLOUDY    42  39  89 S22       30.01F
HOBART         CLOUDY    42  40  92 S20       30.02F
$$

OKZ018>020-024>031-211100-
CENTRAL OKLAHOMA

CITY           SKY/WX    TMP DP  RH WIND       PRES   REMARKS
OKLAHOMA CITY  CLOUDY    43  38  82 S9        30.06F
OKC/WILEY POST CLOUDY    43  38  82 S12       30.07F
OKC/TINKER AFB CLOUDY    41  37  87 S9        30.07
STILLWATER     CLOUDY    42  37  82 S12       30.07F
GUTHRIE        MOCLDY    41  37  86 S8        30.06F
$$

OKZ008-013-054>072-211100-
NORTHEAST OKLAHOMA

CITY           SKY/WX    TMP DP  RH WIND       PRES   REMARKS
TULSA          CLOUDY    43  41  93 S6        30.12F
TULSA/JONES    CLOUDY    42  40  92 S3        30.12F
PONCA CITY     CLOUDY    42  37  82 S14       30.06F
BARTLESVILLE   CLOUDY    42  37  82 SW6       30.11F
MUSKOGEE       CLOUDY    43  41  93 S6        30.14F
$$

OKZ032-040>043-046>053-073>077-211100-
SOUTH CENTRAL/SOUTHEAST OKLAHOMA

CITY           SKY/WX    TMP DP  RH WIND       PRES   REMARKS
ARDMORE/DWNTWN CLOUDY    45  43  93 CALM      30.11F FOG
MCALESTER      CLOUDY    44  43  96 CALM      30.12F
$$




USA.gov is the U.S. government's official web portal to all federal, state and local government web resources and services.